When you browse on this site, cookies collect data to enhance your experience and personalize the content and advertising you see.
Visit our Privacy Policy to learn more. By continuing to use the site, you agree to this use of cookies and data.
  • în România
  • Lista ţărilor
  • Pe 7 zile
  • Temperatura apei
  • Meteo pe hartă
  • Widget-uri
  • user-avatar
    Intrare

    Meteo pe oră la Juigalpa

    Astăzi, 25 Mai, Luni

    Timp Temperatura Precipitaţii Vânt Presiune Umiditate
    00:00 +29°C° 0 mm 1 m/s 749 mmHg 86%
    01:00 +29°C° 0.4 mm 1 m/s 749 mmHg 87%
    02:00 +29°C° 0.4 mm 1 m/s 749 mmHg 87%
    03:00 +29°C° 0.4 mm 1 m/s 748 mmHg 88%
    04:00 +29°C° 0.2 mm 1 m/s 749 mmHg 86%
    05:00 +29°C° 0.2 mm 1 m/s 749 mmHg 85%
    06:00 +29°C° 0 mm 1 m/s 749 mmHg 84%
    07:00 +30°C° 0 mm 1 m/s 750 mmHg 79%
    08:00 +32°C° 0 mm 1 m/s 750 mmHg 74%
    09:00 +34°C° 0 mm 2 m/s 750 mmHg 69%
    10:00 +34°C° 0.3 mm 2 m/s 750 mmHg 67%
    11:00 +35°C° 0.3 mm 2 m/s 750 mmHg 64%
    12:00 +35°C° 0.3 mm 2 m/s 749 mmHg 62%
    13:00 +35°C° 1.1 mm 2 m/s 749 mmHg 63%
    14:00 +35°C° 1.1 mm 2 m/s 748 mmHg 63%
    15:00 +35°C° 1.1 mm 2 m/s 747 mmHg 64%
    16:00 +34°C° 1.5 mm 2 m/s 748 mmHg 68%
    17:00 +32°C° 1.5 mm 1 m/s 748 mmHg 72%
    18:00 +31°C° 1.5 mm 1 m/s 748 mmHg 76%
    19:00 +31°C° 0.3 mm 1 m/s 749 mmHg 77%
    20:00 +31°C° 0.3 mm 1 m/s 750 mmHg 79%
    21:00 +31°C° 0.3 mm 1 m/s 750 mmHg 80%
    22:00 +30°C° 0.2 mm 1 m/s 750 mmHg 82%
    23:00 +30°C° 0.2 mm 1 m/s 750 mmHg 83%

    Mâine, 26 Mai, Marţi

    Timp Temperatura Precipitaţii Vânt Presiune Umiditate
    00:00 +30°C° 0.2 mm 1 m/s 750 mmHg 84%
    01:00 +30°C° 0.2 mm 1 m/s 750 mmHg 85%
    02:00 +29°C° 0.2 mm 1 m/s 749 mmHg 86%
    03:00 +29°C° 0.2 mm 1 m/s 749 mmHg 87%
    04:00 +29°C° 0.2 mm 1 m/s 749 mmHg 86%
    05:00 +29°C° 0.2 mm 1 m/s 749 mmHg 86%
    06:00 +29°C° 0.2 mm 1 m/s 750 mmHg 85%
    07:00 +30°C° 0 mm 1 m/s 750 mmHg 80%
    08:00 +31°C° 0 mm 2 m/s 750 mmHg 74%
    09:00 +34°C° 0 mm 2 m/s 750 mmHg 68%
    10:00 +34°C° 0.1 mm 2 m/s 750 mmHg 66%
    11:00 +35°C° 0.1 mm 2 m/s 750 mmHg 63%
    12:00 +36°C° 0.1 mm 2 m/s 749 mmHg 60%
    13:00 +36°C° 0.2 mm 2 m/s 749 mmHg 60%
    14:00 +36°C° 0.2 mm 2 m/s 748 mmHg 59%
    15:00 +36°C° 0.2 mm 2 m/s 748 mmHg 59%
    16:00 +35°C° 1.4 mm 2 m/s 748 mmHg 64%
    17:00 +33°C° 1.4 mm 1 m/s 748 mmHg 70%
    18:00 +31°C° 1.4 mm 1 m/s 748 mmHg 76%
    19:00 +31°C° 1.4 mm 2 m/s 749 mmHg 78%
    20:00 +31°C° 1.4 mm 2 m/s 750 mmHg 80%
    21:00 +30°C° 1.4 mm 3 m/s 750 mmHg 82%
    22:00 +30°C° 1.8 mm 2 m/s 750 mmHg 83%
    23:00 +29°C° 1.8 mm 2 m/s 750 mmHg 85%

    Poimâine, 27 Mai, Miercuri

    Timp Temperatura Precipitaţii Vânt Presiune Umiditate
    00:00 +29°C° 1.8 mm 2 m/s 750 mmHg 87%
    01:00 +29°C° 0.3 mm 2 m/s 750 mmHg 87%
    02:00 +29°C° 0.3 mm 2 m/s 750 mmHg 87%
    03:00 +29°C° 0.3 mm 1 m/s 749 mmHg 88%
    04:00 +29°C° 0.1 mm 2 m/s 750 mmHg 87%
    05:00 +29°C° 0.1 mm 2 m/s 750 mmHg 87%
    06:00 +29°C° 0.1 mm 2 m/s 750 mmHg 87%
    07:00 +30°C° 0 mm 2 m/s 751 mmHg 80%
    08:00 +31°C° 0 mm 3 m/s 751 mmHg 73%
    09:00 +34°C° 0 mm 3 m/s 751 mmHg 65%
    10:00 +34°C° 0.8 mm 4 m/s 751 mmHg 64%
    11:00 +35°C° 0.8 mm 4 m/s 750 mmHg 63%
    12:00 +35°C° 0.8 mm 4 m/s 750 mmHg 62%
    13:00 +35°C° 1.6 mm 4 m/s 749 mmHg 63%
    14:00 +35°C° 1.6 mm 4 m/s 749 mmHg 64%
    15:00 +35°C° 1.6 mm 4 m/s 748 mmHg 65%
    16:00 +33°C° 0.9 mm 4 m/s 749 mmHg 69%
    17:00 +32°C° 0.9 mm 4 m/s 749 mmHg 74%
    18:00 +30°C° 0.9 mm 4 m/s 749 mmHg 79%
    19:00 +30°C° 0.2 mm 4 m/s 750 mmHg 81%
    20:00 +29°C° 0.2 mm 3 m/s 750 mmHg 83%
    21:00 +29°C° 0.2 mm 3 m/s 751 mmHg 85%
    22:00 +29°C° 0.5 mm 3 m/s 751 mmHg 86%
    23:00 +28°C° 0.5 mm 3 m/s 750 mmHg 86%

    28 Mai, Joi

    Timp Temperatura Precipitaţii Vânt Presiune Umiditate
    00:00 +28°C° 0.5 mm 3 m/s 750 mmHg 87%
    01:00 +28°C° 0.7 mm 3 m/s 750 mmHg 87%
    02:00 +28°C° 0.7 mm 3 m/s 750 mmHg 86%
    03:00 +28°C° 0.7 mm 4 m/s 750 mmHg 86%
    04:00 +28°C° 0.5 mm 3 m/s 750 mmHg 85%
    05:00 +28°C° 0.5 mm 3 m/s 750 mmHg 85%
    06:00 +28°C° 0.5 mm 3 m/s 751 mmHg 84%
    07:00 +29°C° 0.7 mm 4 m/s 751 mmHg 79%
    08:00 +30°C° 0.7 mm 4 m/s 751 mmHg 73%
    09:00 +32°C° 0.7 mm 5 m/s 752 mmHg 68%
    10:00 +33°C° 1.3 mm 4 m/s 751 mmHg 69%
    11:00 +33°C° 1.3 mm 4 m/s 751 mmHg 69%
    12:00 +33°C° 1.3 mm 4 m/s 750 mmHg 70%
    13:00 +32°C° 1.2 mm 4 m/s 750 mmHg 73%
    14:00 +30°C° 1.2 mm 4 m/s 750 mmHg 76%
    15:00 +30°C° 1.2 mm 4 m/s 749 mmHg 79%
    16:00 +29°C° 0.9 mm 4 m/s 749 mmHg 80%
    17:00 +29°C° 0.9 mm 4 m/s 750 mmHg 82%
    18:00 +28°C° 0.9 mm 4 m/s 750 mmHg 84%
    19:00 +28°C° 0.6 mm 3 m/s 751 mmHg 85%
    20:00 +28°C° 0.6 mm 3 m/s 751 mmHg 86%
    21:00 +28°C° 0.6 mm 3 m/s 752 mmHg 87%
    22:00 +27°C° 0.4 mm 3 m/s 751 mmHg 88%
    23:00 +27°C° 0.4 mm 2 m/s 751 mmHg 88%

    29 Mai, Vineri

    Timp Temperatura Precipitaţii Vânt Presiune Umiditate
    00:00 +27°C° 0.4 mm 2 m/s 751 mmHg 89%
    01:00 +27°C° 0 mm 2 m/s 750 mmHg 89%
    02:00 +27°C° 0 mm 2 m/s 750 mmHg 88%
    03:00 +27°C° 0 mm 2 m/s 749 mmHg 88%
    04:00 +27°C° 0 mm 2 m/s 750 mmHg 88%
    05:00 +27°C° 0 mm 2 m/s 750 mmHg 88%
    06:00 +27°C° 0 mm 2 m/s 750 mmHg 88%
    07:00 +27°C° 0 mm 2 m/s 750 mmHg 86%
    08:00 +28°C° 0 mm 2 m/s 751 mmHg 85%
    09:00 +28°C° 0 mm 3 m/s 751 mmHg 83%
    10:00 +29°C° 1 mm 3 m/s 751 mmHg 81%
    11:00 +29°C° 1 mm 3 m/s 750 mmHg 78%
    12:00 +30°C° 1 mm 3 m/s 750 mmHg 76%
    13:00 +29°C° 2.5 mm 2 m/s 750 mmHg 79%
    14:00 +29°C° 2.5 mm 2 m/s 749 mmHg 81%
    15:00 +29°C° 2.5 mm 2 m/s 749 mmHg 84%
    16:00 +28°C° 3.1 mm 2 m/s 749 mmHg 87%
    17:00 +27°C° 3.1 mm 2 m/s 750 mmHg 90%
    18:00 +26°C° 3.1 mm 2 m/s 750 mmHg 93%
    19:00 +26°C° 1.1 mm 2 m/s 751 mmHg 92%
    20:00 +26°C° 1.1 mm 2 m/s 751 mmHg 91%
    21:00 +26°C° 1.1 mm 2 m/s 752 mmHg 90%
    22:00 +26°C° 0 mm 2 m/s 751 mmHg 89%
    23:00 +26°C° 0 mm 1 m/s 751 mmHg 88%

    30 Mai, Sâmbătă

    Timp Temperatura Precipitaţii Vânt Presiune Umiditate
    00:00 +26°C° 0 mm 1 m/s 751 mmHg 86%
    01:00 +26°C° 0.1 mm 1 m/s 751 mmHg 87%
    02:00 +26°C° 0.1 mm 1 m/s 750 mmHg 88%
    03:00 +26°C° 0.1 mm 1 m/s 749 mmHg 89%
    04:00 +26°C° 0.2 mm 1 m/s 749 mmHg 89%
    05:00 +26°C° 0.2 mm 2 m/s 749 mmHg 89%
    06:00 +26°C° 0.2 mm 2 m/s 749 mmHg 89%
    07:00 +26°C° 0.3 mm 1 m/s 750 mmHg 89%
    08:00 +26°C° 0.3 mm 1 m/s 750 mmHg 88%
    09:00 +26°C° 0.3 mm 1 m/s 751 mmHg 87%
    10:00 +27°C° 0.6 mm 1 m/s 750 mmHg 85%
    11:00 +27°C° 0.6 mm 2 m/s 750 mmHg 83%
    12:00 +28°C° 0.6 mm 2 m/s 750 mmHg 81%
    13:00 +27°C° 0.7 mm 2 m/s 749 mmHg 83%
    14:00 +27°C° 0.7 mm 1 m/s 749 mmHg 85%
    15:00 +27°C° 0.7 mm 1 m/s 749 mmHg 87%
    16:00 +27°C° 1.2 mm 1 m/s 749 mmHg 88%
    17:00 +26°C° 1.2 mm 1 m/s 749 mmHg 90%
    18:00 +26°C° 1.2 mm 2 m/s 750 mmHg 91%
    19:00 +26°C° 1.3 mm 1 m/s 750 mmHg 91%
    20:00 +26°C° 1.3 mm 1 m/s 751 mmHg 92%
    21:00 +26°C° 1.3 mm 1 m/s 751 mmHg 92%
    22:00 +26°C° 0.7 mm 2 m/s 751 mmHg 92%
    23:00 +26°C° 0.7 mm 2 m/s 751 mmHg 92%
    Arată mai mult